linux/drivers/watchdog/
<<
>>
Prefs
Kconfig 59337 2017-02-09 07:08:40
Makefile 7697 2017-02-09 07:08:40
acquirewdt.c 8692 2017-02-09 07:08:40
advantechwdt.c 7983 2017-02-09 07:08:40
alim1535_wdt.c 10135 2017-02-09 07:08:40
alim7101_wdt.c 11167 2017-02-09 07:08:40
ar7_wdt.c 7879 2017-02-09 07:08:40
asm9260_wdt.c 9404 2017-02-09 07:08:40
aspeed_wdt.c 5157 2017-02-09 07:08:40
at32ap700x_wdt.c 9841 2017-02-09 07:08:40
at91rm9200_wdt.c 8064 2017-02-09 07:08:40
at91sam9_wdt.c 10960 2017-02-09 07:08:40
at91sam9_wdt.h 1530 2017-02-09 07:08:40
ath79_wdt.c 7593 2017-02-09 07:08:40
atlas7_wdt.c 5975 2017-02-09 07:08:40
bcm2835_wdt.c 6941 2017-02-09 07:08:40
bcm47xx_wdt.c 6150 2017-02-09 07:08:40
bcm63xx_wdt.c 7136 2017-02-09 07:08:40
bcm7038_wdt.c 5824 2017-02-09 07:08:40
bcm_kona_wdt.c 9615 2017-02-09 07:08:40
bfin_wdt.c 10356 2017-02-09 07:08:40
booke_wdt.c 5971 2017-02-09 07:08:40
cadence_wdt.c 13212 2017-02-09 07:08:40
coh901327_wdt.c 13086 2017-02-09 07:08:40
cpu5wdt.c 6791 2017-02-09 07:08:40
cpwd.c 16264 2017-02-09 07:08:40
da9052_wdt.c 5337 2017-02-09 07:08:40
da9055_wdt.c 4605 2017-02-09 07:08:40
da9062_wdt.c 6458 2017-02-09 07:08:40
da9063_wdt.c 5534 2017-02-09 07:08:40
davinci_wdt.c 6497 2017-02-09 07:08:40
diag288_wdt.c 7647 2017-02-09 07:08:40
digicolor_wdt.c 4645 2017-02-09 07:08:40
dw_wdt.c 8259 2017-02-09 07:08:40
ebc-c384_wdt.c 4305 2017-02-09 07:08:40
ep93xx_wdt.c 4452 2017-02-09 07:08:40
eurotechwdt.c 10928 2017-02-09 07:08:40
f71808e_wdt.c 22084 2017-02-09 07:08:40
gef_wdt.c 7672 2017-02-09 07:08:40
geodewdt.c 6603 2017-02-09 07:08:40
gpio_wdt.c 6045 2017-02-09 07:08:40
hpwdt.c 22343 2017-02-09 07:08:40
i6300esb.c 12672 2017-02-09 07:08:40
iTCO_vendor.h 680 2017-02-09 07:08:40
iTCO_vendor_support.c 11089 2017-02-09 07:08:40
iTCO_wdt.c 19352 2017-02-09 07:08:40
ib700wdt.c 8519 2017-02-09 07:08:40
ibmasr.c 9628 2017-02-09 07:08:40
ie6xx_wdt.c 8769 2017-02-09 07:08:40
imgpdc_wdt.c 9602 2017-02-09 07:08:40
imx2_wdt.c 12196 2017-02-09 07:08:40
indydog.c 4703 2017-02-09 07:08:40
intel-mid_wdt.c 4347 2017-02-09 07:08:40
intel_scu_watchdog.c 15396 2017-02-09 07:08:40
intel_scu_watchdog.h 2053 2017-02-09 07:08:40
iop_wdt.c 6030 2017-02-09 07:08:40
it8712f_wdt.c 10199 2017-02-09 07:08:40
it87_wdt.c 18703 2017-02-09 07:08:40
ixp4xx_wdt.c 4680 2017-02-09 07:08:40
jz4740_wdt.c 6364 2017-02-09 07:08:40
kempld_wdt.c 14813 2017-02-09 07:08:40
ks8695_wdt.c 7838 2017-02-09 07:08:40
lantiq_wdt.c 5878 2017-02-09 07:08:40
lpc18xx_wdt.c 9307 2017-02-09 07:08:40
m54xx_wdt.c 5130 2017-02-09 07:08:40
machzwd.c 10054 2017-02-09 07:08:40
max63xx_wdt.c 7154 2017-02-09 07:08:40
max77620_wdt.c 5472 2017-02-09 07:08:40
mei_wdt.c 16305 2017-02-09 07:08:40
mena21_wdt.c 6031 2017-02-09 07:08:40
menf21bmc_wdt.c 5492 2017-02-09 07:08:40
meson_gxbb_wdt.c 8143 2017-02-09 07:08:40
meson_wdt.c 6585 2017-02-09 07:08:40
mixcomwd.c 7428 2017-02-09 07:08:40
moxart_wdt.c 4566 2017-02-09 07:08:40
mpc8xxx_wdt.c 7024 2017-02-09 07:08:40
mt7621_wdt.c 4294 2017-02-09 07:08:40
mtk_wdt.c 6862 2017-02-09 07:08:40
mtx-1_wdt.c 6368 2017-02-09 07:08:40
mv64x60_wdt.c 7825 2017-02-09 07:08:40
ni903x_wdt.c 6899 2017-02-09 07:08:40
nuc900_wdt.c 7310 2017-02-09 07:08:40
nv_tco.c 12493 2017-02-09 07:08:40
nv_tco.h 2062 2017-02-09 07:08:40
octeon-wdt-main.c 17230 2017-02-09 07:08:40
octeon-wdt-nmi.S 1370 2017-02-09 07:08:40
of_xilinx_wdt.c 6996 2017-02-09 07:08:40
omap_wdt.c 9788 2017-02-09 07:08:40
omap_wdt.h 2300 2017-02-09 07:08:40
orion_wdt.c 16996 2017-02-09 07:08:40
pc87413_wdt.c 14364 2017-02-09 07:08:40
pcwd.c 26527 2017-02-09 07:08:40
pcwd_pci.c 20378 2017-02-09 07:08:40
pcwd_usb.c 21590 2017-02-09 07:08:40
pic32-dmt.c 5743 2017-02-09 07:08:40
pic32-wdt.c 6240 2017-02-09 07:08:40
pika_wdt.c 6878 2017-02-09 07:08:40
pnx4008_wdt.c 7267 2017-02-09 07:08:40
pnx833x_wdt.c 7250 2017-02-09 07:08:40
pretimeout_noop.c 1270 2017-02-09 07:08:40
pretimeout_panic.c 1252 2017-02-09 07:08:40
qcom-wdt.c 6521 2017-02-09 07:08:40
rc32434_wdt.c 8324 2017-02-09 07:08:40
rdc321x_wdt.c 7328 2017-02-09 07:08:40
renesas_wdt.c 5365 2017-02-09 07:08:40
retu_wdt.c 4630 2017-02-09 07:08:40
riowd.c 5716 2017-02-09 07:08:40
rn5t618_wdt.c 5293 2017-02-09 07:08:40
rt2880_wdt.c 5041 2017-02-09 07:08:40
s3c2410_wdt.c 19929 2017-02-09 07:08:40
sa1100_wdt.c 4751 2017-02-09 07:08:40
sama5d4_wdt.c 6468 2017-02-09 07:08:40
sb_wdog.c 8737 2017-02-09 07:08:40
sbc60xxwdt.c 10352 2017-02-09 07:08:40
sbc7240_wdt.c 7049 2017-02-09 07:08:40
sbc8360.c 10039 2017-02-09 07:08:40
sbc_epx_c3.c 5119 2017-02-09 07:08:40
sbc_fitpc2_wdt.c 5377 2017-02-09 07:08:40
sbsa_gwdt.c 11246 2017-02-09 07:08:40
sc1200wdt.c 11388 2017-02-09 07:08:40
sc520_wdt.c 11080 2017-02-09 07:08:40
sch311x_wdt.c 13801 2017-02-09 07:08:40
scx200_wdt.c 6599 2017-02-09 07:08:40
shwdt.c 9322 2017-02-09 07:08:40
sirfsoc_wdt.c 5819 2017-02-09 07:08:40
smsc37b787_wdt.c 15474 2017-02-09 07:08:40
softdog.c 4137 2017-02-09 07:08:40
sp5100_tco.c 15328 2017-02-09 07:08:40
sp5100_tco.h 1732 2017-02-09 07:08:40
sp805_wdt.c 7312 2017-02-09 07:08:40
st_lpc_wdt.c 7474 2017-02-09 07:08:40
stmp3xxx_rtc_wdt.c 4121 2017-02-09 07:08:40
sun4v_wdt.c 4594 2017-02-09 07:08:40
sunxi_wdt.c 8447 2017-02-09 07:08:40
tangox_wdt.c 5514 2017-02-09 07:08:40
tegra_wdt.c 7896 2017-02-09 07:08:40
ts4800_wdt.c 5352 2017-02-09 07:08:40
ts72xx_wdt.c 10015 2017-02-09 07:08:40
twl4030_wdt.c 3873 2017-02-09 07:08:40
txx9wdt.c 4683 2017-02-09 07:08:40
ux500_wdt.c 4104 2017-02-09 07:08:40
via_wdt.c 7638 2017-02-09 07:08:40
w83627hf_wdt.c 10637 2017-02-09 07:08:40
w83877f_wdt.c 10171 2017-02-09 07:08:40
w83977f_wdt.c 12093 2017-02-09 07:08:40
wafer5823wdt.c 7256 2017-02-09 07:08:40
watchdog_core.c 11342 2017-02-09 07:08:40
watchdog_core.h 1330 2017-02-09 07:08:40
watchdog_dev.c 27793 2017-02-09 07:08:40
watchdog_pretimeout.c 4804 2017-02-09 07:08:40
watchdog_pretimeout.h 1645 2017-02-09 07:08:40
wd501p.h 1598 2017-02-09 07:08:40
wdat_wdt.c 13007 2017-02-09 07:08:40
wdrtas.c 15626 2017-02-09 07:08:40
wdt.c 15830 2017-02-09 07:08:40
wdt285.c 4856 2017-02-09 07:08:40
wdt977.c 12079 2017-02-09 07:08:40
wdt_pci.c 17672 2017-02-09 07:08:40
wm831x_wdt.c 7533 2017-02-09 07:08:40
wm8350_wdt.c 4240 2017-02-09 07:08:40
xen_wdt.c 7630 2017-02-09 07:08:40
ziirave_wdt.c 19774 2017-02-09 07:08:40